This is the latest recevied weather packets stored in our database for station/object CE3PA-5. If no packets are shown the sender has not sent any weather packets the latest 10 day(s).
| Time | Temp. | Humidity | Pressure | Rain* | Wind** | Luminosity | Snow |
|---|---|---|---|---|---|---|---|
| 1777792250 | 6.67° C | 20% | 756.8 hPa | - | - | - | - |
| 1777791350 | 6.67° C | 20% | 756.7 hPa | - | - | - | - |
| 1777790450 | 6.67° C | 20% | 756.9 hPa | - | - | - | - |
| 1777788650 | 6.67° C | 21% | 757 hPa | - | - | - | - |
| 1777787811 | 6.67° C | 21% | 757.1 hPa | - | - | - | - |
| 1777787748 | 6.67° C | 21% | 757.1 hPa | - | - | - | - |
| 1777784151 | 7.78° C | 21% | 757.4 hPa | - | - | - | - |
| 1777783251 | 7.78° C | 21% | 757.3 hPa | - | - | - | - |
| 1777781452 | 8.33° C | 21% | 757.3 hPa | - | - | - | - |
| 1777776049 | 10° C | 21% | 757.5 hPa | - | - | - | - |
| 1777775150 | 11.11° C | 21% | 757.6 hPa | - | - | - | - |
| 1777769749 | 10.56° C | 22% | 758.1 hPa | - | - | - | - |
| 1777768850 | 10.56° C | 22% | 758.1 hPa | - | - | - | - |
| 1777766149 | 11.67° C | 22% | 758 hPa | - | - | - | - |
| 1777765253 | 12.22° C | 22% | 758.1 hPa | - | - | - | - |
| 1777764352 | 13.33° C | 22% | 757.9 hPa | - | - | - | - |
| 1777763452 | 13.33° C | 22% | 757.9 hPa | - | - | - | - |
| 1777762551 | 13.33° C | 22% | 757.9 hPa | - | - | - | - |
| 1777761651 | 14.44° C | 22% | 757.9 hPa | - | - | - | - |
| 1777760750 | 15° C | 22% | 757.8 hPa | - | - | - | - |
| 1777759851 | 17.78° C | 21% | 757.7 hPa | - | - | - | - |
| 1777758049 | 21.11° C | 20% | 757.5 hPa | - | - | - | - |
| 1777757150 | 21.67° C | 20% | 757.4 hPa | - | - | - | - |
| 1777756249 | 23.33° C | 20% | 757.4 hPa | - | - | - | - |
| 1777755349 | 23.33° C | 21% | 757.4 hPa | - | - | - | - |
* Rain since midnight (hover to see other rain measurements)
** Current wind speed in m/s (hover to see current wind gust speed)